Weather observations for the past three days for
Lancaster, Fairfield County Airport
Imperial (Metric)
Date Time (edt) Wind (mph) Vis. (mi.) Weather Sky Cond. Temperature (ºF) Relative Humidity Wind Chill (°F) Heat Index (°F) Pressure Precipitation (in)
Air Dwpt 6 hour altimeter (in) sea level (mb) 1 hr 3 hr 6 hr
Max. Min.
18 00:53 Calm 10.00 A Few Clouds FEW050 66 66 100% 29.99 1014.8
17 23:53 Calm 10.00 Overcast BKN095 OVC120 68 68 100% 29.98 1014.4
17 22:53 SW 5 10.00 Overcast FEW065 OVC085 66.9 66.9 100% 29.97 1014.1 0.18 0.18
17 21:53 N 3 10.00 Overcast FEW032 BKN055 OVC100 72 70 94% 29.95 1013.5
17 20:53 SW 5 10.00 Fair CLR 71.1 70 96% 29.93 1012.7
17 19:53 SW 5 10.00 Fair CLR 75 69.1 84.9 68 82% 75 29.92 1012.4 0.43
17 18:53 Calm 10.00 Fair CLR 77 68 74% 79 29.91 1012.1
17 17:53 N 6 10.00 Fair CLR 75.9 69.1 79% 77 29.9 1011.9
17 16:53 NW 9 10.00 Fair CLR 75 72 90% 74 29.9 1011.7 0.04 0.43
17 15:53 Vrbl 3 G 35 0.50 Heavy Rain Fog SCT010 OVC036 69.1 68 96% 29.91 1012.1 0.39
17 14:53 NE 7 10.00 Overcast BKN038 OVC050 77 69.1 77% 79 29.9 1011.8
17 13:53 SW 10 10.00 A Few Clouds FEW033 FEW049 FEW110 84 71.1 84 72 65% 89 29.9 1011.7
17 12:53 W 9 10.00 Mostly Cloudy FEW028 BKN042 82 71.1 69% 86 29.92 1012.4
17 11:53 SW 9 10.00 A Few Clouds FEW023 80.1 71.1 74% 84 29.92 1012.4
17 10:53 W 7 10.00 Mostly Cloudy BKN019 BKN037 75.9 71.1 85% 76 29.92 1012.5
17 09:53 W 5 10.00 A Few Clouds FEW049 75.9 72 88% 76 29.91 1012.0
17 08:53 SW 5 10.00 Mostly Cloudy FEW070 BKN095 73.9 71.1 91% 29.91 1012.2
17 07:53 W 5 10.00 Overcast FEW060 BKN075 OVC100 72 70 73 68 94% 29.93 1012.5
17 06:53 SW 5 10.00 Overcast SCT060 OVC075 72 70 94% 29.91 1012.1
17 05:53 Calm 10.00 Light Rain SCT049 BKN120 70 70 100% 29.9 1011.7
17 04:53 Calm 10.00 Fair CLR 71.1 70 96% 29.89 1011.2
17 03:53 S 3 10.00 Fair CLR 70 70 100% 29.89 1011.2
17 02:53 Calm 10.00 Fair CLR 71.1 69.1 94% 29.89 1011.1
17 01:53 S 3 10.00 Fair CLR 73 70 82 69.1 90% 29.89 1011.3
17 00:53 Calm 10.00 Overcast OVC085 71.1 71.1 100% 29.9 1011.7
16 23:53 Calm 10.00 Fair CLR 70 70 100% 29.9 1011.6
16 22:53 Calm 10.00 Fair CLR 73 70 90% 29.9 1011.6
16 21:53 W 3 10.00 Overcast OVC060 78.1 69.1 74% 80 29.89 1011.3
16 20:53 W 7 10.00 A Few Clouds FEW060 80.1 68 67% 83 29.88 1010.9
16 19:53 SW 7 10.00 Fair CLR 82 69.1 89.1 82 65% 85 29.87 1010.7
16 18:53 W 8 10.00 Fair CLR 84.9 69.1 59% 89 29.87 1010.5
16 17:53 W 13 10.00 Fair CLR 86 66.9 53% 89 29.88 1010.8
16 16:53 W 13 10.00 Fair CLR 87.1 66.9 51% 90 29.88 1011.0
16 15:53 W 10 10.00 Partly Cloudy SCT100 86 68 55% 89 29.88 1011.0
16 14:53 W 12 G 20 10.00 A Few Clouds FEW090 FEW110 88 66 48% 90 29.89 1011.1
16 13:53 W 9 10.00 Fair CLR 87.1 68 87.1 75 53% 91 29.89 1011.5
16 12:53 SW 6 10.00 Fair CLR 82.9 69.1 63% 87 29.9 1011.7
16 11:53 W 10 10.00 Fair CLR 82.9 69.1 63% 87 29.9 1011.8
16 10:53 W 12 10.00 Fair CLR 81 68 65% 84 29.91 1012.1
16 09:53 W 7 10.00 Fair CLR 79 66.9 67% 81 29.9 1011.6
16 08:53 W 8 10.00 Fair CLR 77 66.9 71% 79 29.89 1011.5
16 07:53 W 12 G 18 10.00 Fair CLR 75 66 75 70 74% 76 29.87 1010.8
16 06:53 SW 12 G 21 10.00 Fair CLR 73.9 66 76% 29.82 1009.0
16 05:53 S 7 10.00 Fair CLR 73.9 69.1 85% 29.8 1008.5
16 04:53 SW 9 10.00 A Few Clouds FEW085 73.9 71.1 91% 29.83 1009.3
16 03:53 SW 10 10.00 Fair CLR 75 71.1 88% 75 29.86 1010.2
16 02:53 Calm 10.00 Fair CLR 71.1 70 96% 29.87 1010.4
16 01:53 SE 3 10.00 Partly Cloudy SCT075 70 70 73 68 100% 29.87 1010.8
16 00:53 Calm 10.00 A Few Clouds FEW070 68 68 100% 29.88 1011.0
15 23:53 Calm 10.00 Fair CLR 69.1 69.1 100% 29.88 1011.0
15 22:53 S 3 10.00 Fair CLR 69.1 69.1 100% 29.87 1010.7
15 21:53 S 3 10.00 Fair CLR 70 70 100% 29.86 1010.6
15 20:53 Calm 10.00 Fair CLR 71.1 71.1 100% 29.87 1010.8
15 19:53 Calm 10.00 Fair CLR 72 72 91 69.1 100% 29.88 1011.2 0.15
15 18:53 Calm 10.00 Fair CLR 70 69.1 97% 29.9 1011.9
15 17:53 W 9 G 17 3.00 Thunderstorm Light Rain BKN046 BKN060 OVC110 71.1 66 84% 29.9 1011.9 0.15
15 16:53 SW 12 8.00 Light Rain FEW035 BKN060 OVC075 82.9 73.9 74% 89 29.91 1012.0
15 15:53 W 15 G 20 10.00 Fair CLR 91 70 50% 97 29.91 1012.0
15 14:53 W 10 10.00 Fair CLR 90 68 48% 94 29.94 1012.9
15 13:53 SW 12 10.00 Fair CLR 88 72 88 75 59% 95 29.96 1013.7
15 12:53 SW 9 10.00 A Few Clouds FEW030 86 73 65% 93 29.97 1014.0
15 11:53 Vrbl 7 10.00 Fair CLR 80.1 73.9 82% 85 29.98 1014.5
15 10:53 SW 8 10.00 Fair CLR 79 72 79% 82 29.96 1014.0
15 09:53 S 10 10.00 Fair CLR 81 73 77% 86 29.97 1014.0
15 08:53 SW 6 10.00 Fair CLR 77 72 85% 78 29.99 1014.9
15 07:53 SW 5 10.00 Partly Cloudy FEW031 SCT120 75 71.1 75 68 88% 75 30 1015.1
15 06:53 Calm 10.00 Partly Cloudy SCT120 72 69.1 91% 30 1015.1
15 05:53 Calm 10.00 A Few Clouds FEW085 FEW110 71.1 68 90% 29.98 1014.7
15 03:53 SE 6 10.00 Fair CLR 70 66.9 90% 29.98 1014.3
15 02:53 Calm 10.00 Fair CLR 69.1 66.9 93% 30.01 1015.4
15 01:53 SE 5 10.00 Fair CLR 68 68 73 66.9 100% 30.01 1015.5
Date Time (edt) Wind (mph) Vis. (mi.) Weather Sky Cond. Air Dwpt Max. Min. Relative Humidity Wind Chill (°F) Heat Index (°F) altimeter (in) sea level (mb) 1 hr 3 hr 6 hr
6 hour
Temperature (ºF) Pressure Precipitation (in)